Volver al catálogo

CZ-2C DEB

ActivoSSO
NORAD 40291·DEBRIS·🇨🇳 China

Lanzado Oct 27, 2014 desde Jiuquan Satellite Launch Center

Loading…

Próximos Pases (próximas 24 horas)

TLE

ActualizadoSource: Space-Track

Época: Sep 13, 2026, 21:22 UTC

1 40291U 14066F   26256.89093057  .00002126  00000-0  64928-3 0  9998
2 40291  98.2835 240.9591 0153638  11.6544 348.8134 14.36292730618441

Sigue CZ-2C DEB en tiempo real con AllMySat

Download on the App Store